Volver al catálogo

CZ-2D R/B

ActivoSSO
NORAD 51103·ROCKET BODY·🇨🇳 China

Lanzado Jan 17, 2022 desde Taiyuan Satellite Launch Center

Loading…

Próximos Pases (próximas 24 horas)

TLE

ActualizadoSource: Space-Track

Época: Sep 14, 2026, 05:04 UTC

1 51103U 22004B   26257.21133054  .00008894  00000-0  29725-3 0  9996
2 51103  98.4784 351.8857 0471813  69.9491 295.1848 14.64811922244703

Sigue CZ-2D R/B en tiempo real con AllMySat

Download on the App Store